Dewpoint
-11 -12 -12 -13 -13 -12 -9 -8 -8 -7 -4 -1 1 3 4 3 3 2 2 2 2 1 1 2 6 9 10 11 13 13 13 13 12 12 13 13 12 10 10 9 7 5 4 2
-9 -11 -15 -15 -15 -12 -10 -8 -7 -7 -2 -2 -0 2 3 2 2 1 0 0 0 -1 -2 -1 -0 2 6 10 11 12 12 12 11 11 11 10 9 7 4 1 -2 -5 -7 -11
-13 -14 -12 -13 -14 -12 -11 -9 -7 -4 -1 -2 0 3 3 1 1 1 -0 -1 -1 -2 -3 -3 -3 -2 -1 2 7 10 11 10 9 8 7 5 2 -2 -6 -12 -17 -21 -24 -27
-11 -15 -13 -12 -13 -15 -12 -13 -10 -6 0 1 -1 -1 3 2 2 1 -0 -0 -1 -2 -4 -5 -5 -5 -5 -7 -3 -1 0 1 0 -2 -3 -4 -5 -8 -15 -22 -26 -30 -32 -32
-11 -10 -11 -12 -13 -14 -14 -16 -11 -8 -2 -1 2 3 -2 2 3 2 1 -0 -0 -2 -4 -5 -5 -5 -6 -15 -16 -16 -14 -13 -15 -16 -17 -18 -19 -22 -26 -29 -31 -30 -30 -29
-11 -12 -12 -13 -15 -13 -15 -14 -12 -7 -3 0 -1 1 -1 2 2 1 1 0 -0 -1 -3 -4 -4 -5 -5 -11 -16 -17 -18 -19 -20 -21 -23 -25 -28 -29 -28 -27 -24 -24 -25 -27
-10 -10 -11 -10 -11 -13 -13 -10 -5 -1 -1 2 -3 -0 -1 -5 -1 -0 1 1 0 -1 -3 -4 -4 -5 -4 -7 -15 -17 -18 -21 -24 -26 -28 -30 -30 -30 -28 -19 -16 -12 -18 -25
-9 -8 -11 -12 -10 -12 -12 -8 -4 -1 -1 -0 -4 -1 -2 -5 -3 -1 -1 1 1 -1 -3 -4 -4 -5 -4 -3 -5 -8 -11 -20 -22 -25 -28 -29 -27 -23 -25 -23 -21 -21 -25 -25
-9 -8 -13 -13 -12 -11 -11 -8 -8 -5 -5 -4 -4 -4 -4 -3 -4 -2 -1 1 1 -1 -2 -3 -4 -4 -4 -4 -3 -5 -8 -13 -16 -20 -25 -28 -27 -26 -26 -26 -26 -26 -25 -23
-9 -6 -10 -11 -11 -12 -11 -13 -6 -4 -3 -3 -5 -3 -3 -2 -3 -2 0 1 1 -0 -2 -3 -4 -3 -4 -3 -3 -4 -4 -7 -14 -18 -22 -25 -26 -25 -26 -26 -25 -24 -24 -22
-8 -6 -6 -9 -7 -10 -10 -8 -9 -7 -4 -2 -4 -6 -7 -5 -3 -1 0 2 1 0 -1 -2 -3 -3 -4 -3 -3 -3 -4 -7 -11 -13 -19 -26 -26 -25 -25 -24 -25 -24 -23 -22
-6 -5 -3 -6 -10 -11 -11 -9 -8 -3 -3 -5 -6 -6 -5 -9 -5 -2 -1 1 1 1 -1 -2 -3 -3 -3 -3 -3 -3 -3 -5 -9 -15 -19 -26 -27 -25 -24 -24 -24 -24 -22 -21
-0 -2 -1 -4 -7 -7 -6 -7 -8 -7 -5 -5 -1 -4 -6 -4 -5 -3 0 1 1 1 -1 -2 -2 -3 -3 -3 -3 -3 -3 -4 -7 -11 -17 -24 -23 -23 -22 -22 -22 -22 -21 -20
-2 0 -2 -2 -6 -8 -5 -6 -7 -5 1 -1 -6 -8 -8 -2 -2 -1 0 1 1 1 -1 -1 -2 -3 -3 -3 -4 -4 -4 -4 -6 -7 -8 -19 -20 -20 -21 -21 -21 -21 -20 -19
-4 1 -1 -2 -5 -7 -7 -7 -7 -5 -4 -1 -3 -7 -10 -7 -1 -0 1 1 1 1 -0 -1 -2 -2 -2 -3 -3 -4 -4 -4 -5 -6 -6 -16 -20 -21 -21 -21 -20 -20 -19 -19
-8 -1 -1 2 -2 -4 -5 -8 -7 -7 -6 -5 -4 -4 -8 -8 -1 1 1 1 1 1 -0 -1 -2 -2 -2 -3 -3 -4 -3 -4 -5 -6 -7 -19 -20 -20 -20 -20 -19 -19 -20 -20
-7 -5 1 2 -2 -4 0 -3 -7 -8 -8 -7 -4 -5 -6 -4 0 1 1 1 1 1 -0 -1 -2 -2 -2 -3 -3 -3 -4 -5 -5 -6 -10 -20 -19 -19 -20 -20 -19 -19 -20 -20
-8 -6 -3 2 0 5 -3 -7 -7 -7 -8 -9 -8 -8 -8 -6 -2 -1 0 1 1 1 0 -1 -2 -2 -2 -3 -3 -3 -4 -5 -5 -5 -10 -18 -18 -19 -20 -19 -19 -20 -20 -18
-11 -8 -4 1 1 -1 -5 -7 -7 -7 -7 -9 -9 -8 -9 -9 -8 -2 -0 0 -1 0 0 -0 -1 -2 -2 -3 -3 -3 -4 -4 -5 -7 -12 -19 -20 -20 -20 -18 -19 -19 -19 -18
-10 -9 -4 -3 2 2 -3 -6 -8 -7 -3 -8 -9 -8 -8 -9 -5 -5 -2 -0 -0 0 0 -0 -1 -2 -2 -3 -3 -3 -4 -5 -5 -9 -14 -20 -19 -17 -18 -19 -20 -20 -19 -19
-0 -4 -1 -1 -0 -2 -5 -5 -7 -2 -4 -8 -9 -8 -8 -6 -6 -7 -6 -2 -2 -1 -0 -0 -1 -2 -3 -3 -4 -4 -5 -6 -6 -11 -15 -19 -17 -17 -19 -20 -20 -20 -19 -17
-11 1 -1 -2 -0 -0 -8 -5 -2 -1 -2 -2 -3 -6 -6 -6 -6 -5 -4 -3 -1 -0 -0 -0 -1 -2 -3 -4 -5 -4 -5 -5 -7 -12 -16 -18 -16 -18 -20 -20 -20 -20 -18 -16
-7 -3 -2 -2 -2 -8 -3 -2 -4 -7 -7 -5 -2 -3 -4 -3 -3 -4 -1 -1 -1 -1 -0 -1 -1 -2 -2 -4 -5 -5 -5 -5 -9 -13 -15 -15 -17 -20 -19 -18 -19 -17 -17 -11
-14 -14 -8 -7 -8 -6 -7 -8 -5 -8 -9 -8 -4 -4 -2 -3 -3 -2 -1 -1 -1 -1 -1 -1 -2 -2 -2 -4 -4 -5 -5 -6 -10 -13 -10 -13 -18 -20 -18 -14 -15 -14 -14 -17
-15 -15 -14 -13 -13 -14 -11 -6 -7 -10 -11 -11 -7 -4 -3 -4 -3 -3 -2 -1 -1 -1 -1 -2 -2 -2 -3 -4 -4 -5 -5 -7 -11 -9 -9 -14 -15 -15 -15 -14 -15 -13 -20 -18
-17 -15 -14 -11 -16 -15 -15 -14 -13 -14 -14 -12 -8 -6 -7 -6 -4 -3 -3 -1 -1 -1 -2 -2 -2 -2 -3 -4 -4 -4 -6 -8 -12 -9 -9 -10 -16 -11 -12 -19 -21 -23 -23 -26
Wind_Speed
12 11 16 19 19 19 12 18 19 18 12 16 17 14 19 22 20 18 18 18 16 14 11 10 11 10 10 11 14 15 14 13 13 14 11 10 11 8 8 6 5 4 3 3
9 17 17 9 15 17 17 16 20 11 13 13 13 16 17 20 19 20 19 19 18 15 13 11 11 11 11 12 13 14 13 13 13 11 12 13 11 10 8 6 5 2 1 1
19 5 3 16 16 20 22 20 19 17 10 2 13 10 15 15 18 19 19 18 18 19 18 15 13 13 13 13 14 15 15 14 13 12 11 11 10 9 7 6 4 3 2 2
13 18 11 9 21 19 23 22 15 15 18 13 16 11 18 20 19 21 23 22 21 20 19 18 16 15 14 15 15 15 15 14 15 14 13 11 9 8 7 6 5 5 5 6
7 10 17 21 19 18 19 19 18 18 18 11 15 8 19 24 21 23 28 28 25 23 21 20 18 16 15 17 16 16 15 15 14 12 11 10 9 8 7 7 7 6 7 8
16 4 9 16 19 11 13 14 17 15 15 15 22 20 23 23 29 24 30 31 29 27 23 20 18 18 16 17 18 17 16 15 14 13 11 10 9 9 9 8 7 7 7 8
17 19 16 10 11 17 17 17 11 13 13 20 25 22 20 26 24 28 33 39 35 31 29 27 25 22 20 19 19 18 16 16 15 14 13 13 12 11 10 9 7 7 7 8
11 12 21 18 22 16 24 23 15 22 21 23 20 24 24 27 19 30 35 35 34 35 32 30 28 25 23 21 19 18 17 17 16 14 13 13 12 11 10 9 8 8 8 9
8 10 4 13 18 20 19 22 27 23 22 17 15 18 12 8 14 22 31 35 37 36 33 31 28 25 24 22 20 19 18 17 16 15 13 12 12 11 10 9 9 9 9 10
14 16 11 8 15 22 25 22 21 17 21 25 22 28 18 22 16 19 26 39 42 40 37 35 31 27 24 22 21 20 18 17 16 14 13 11 11 10 10 9 9 9 10 10
21 16 13 11 16 21 16 19 18 20 17 19 20 23 20 19 22 23 28 40 46 48 44 40 34 29 26 24 23 22 20 19 17 15 13 12 11 10 10 9 9 9 10 9
11 9 17 21 15 15 22 25 25 14 26 20 18 16 4 14 23 31 36 43 47 47 45 41 37 34 30 27 25 23 21 19 17 15 14 13 12 11 10 10 9 9 10 10
10 8 15 15 19 16 16 20 22 25 19 23 17 20 5 3 11 24 29 35 39 41 41 40 38 37 33 29 26 24 22 20 18 17 15 14 13 12 11 10 10 10 10 10
11 10 13 16 17 16 19 21 23 22 17 21 21 22 15 9 13 17 29 36 40 44 45 42 40 38 35 32 29 26 23 22 20 18 16 15 14 13 12 11 10 10 10 10
10 8 15 17 21 21 16 20 23 23 28 23 26 27 20 14 15 22 29 33 38 43 45 45 44 42 38 34 30 27 25 24 22 19 17 16 16 14 13 12 11 10 10 9
11 6 14 18 19 21 22 23 20 26 28 26 29 26 15 18 11 21 29 36 40 45 47 46 44 42 40 37 34 30 28 25 23 20 19 18 18 16 14 12 11 10 9 9
10 7 8 12 14 14 21 26 26 25 23 25 24 24 21 11 15 23 28 33 40 47 50 50 49 46 42 38 36 34 31 28 25 22 21 20 19 17 15 13 11 10 8 8
15 13 7 9 12 16 20 18 25 26 25 24 21 14 20 18 23 24 31 43 43 44 48 48 48 46 42 39 36 33 32 30 26 24 22 21 20 18 16 14 11 10 8 7
25 18 10 8 13 19 18 20 19 24 27 23 23 19 20 24 26 23 30 37 45 50 53 54 51 48 42 41 39 36 33 30 27 25 24 22 21 19 17 14 12 10 8 7
24 23 15 11 14 17 16 22 7 9 17 18 22 19 21 21 13 15 28 30 31 36 42 49 52 49 46 44 42 38 35 32 28 26 25 23 22 19 17 15 13 11 9 7
10 15 20 19 15 15 11 11 8 14 8 13 22 25 26 18 22 25 24 35 38 43 45 47 51 55 55 51 48 42 38 34 29 27 26 25 22 20 18 16 13 11 9 7
16 5 12 17 21 24 11 12 13 13 16 29 24 10 17 19 24 25 23 31 32 38 44 50 52 53 57 57 53 44 40 34 31 29 28 26 24 21 19 16 14 11 9 7
12 2 6 6 10 13 13 14 8 18 21 27 23 24 21 18 19 16 16 24 32 38 45 53 52 49 48 57 55 50 40 36 34 31 29 27 25 22 19 16 14 12 9 7
22 22 11 12 11 10 30 30 16 16 27 27 21 23 20 20 17 18 16 21 34 39 45 48 48 49 50 60 55 49 42 39 36 33 30 28 26 24 20 16 14 11 10 8
18 21 18 23 30 37 34 18 9 26 32 32 27 22 24 25 22 19 19 22 33 41 44 49 50 51 55 62 58 50 45 40 37 33 30 29 26 23 21 16 14 13 12 10
24 27 17 23 28 29 37 44 45 44 39 37 32 29 29 26 26 21 18 22 31 41 43 46 48 49 51 56 54 48 46 42 38 35 32 29 28 23 21 19 18 14 12 9
Wind_Direction
206 226 221 221 226 244 270 212 207 205 164 187 192 163 169 172 173 173 171 165 162 155 147 147 151 155 161 169 187 191 189 185 183 167 177 180 189 172 186 181 178 186 239 264
210 230 238 252 237 233 238 236 219 154 181 199 187 172 169 179 182 181 176 173 168 163 156 150 149 150 154 166 176 183 184 186 182 190 195 188 180 175 166 159 163 167 214 304
235 218 261 236 232 228 230 232 227 187 168 174 169 168 183 187 191 189 190 184 179 175 167 161 152 150 151 157 166 176 184 184 183 179 180 176 167 155 148 147 150 130 99 42
249 244 225 233 237 230 230 224 253 215 187 200 200 231 199 193 199 198 194 193 189 182 174 167 161 155 155 158 160 163 166 169 170 168 168 160 150 153 153 139 111 89 76 67
209 216 222 232 235 232 247 236 216 232 212 170 189 211 235 188 204 201 197 198 192 187 180 172 167 162 158 164 165 167 169 170 168 168 166 164 160 153 141 122 106 91 72 57
261 219 260 257 231 242 242 236 219 214 217 221 212 213 220 194 208 195 199 199 193 187 182 177 172 164 161 167 168 169 170 169 168 170 168 165 159 144 132 123 108 92 75 62
233 240 234 233 233 219 219 210 195 209 206 225 214 210 231 207 202 202 199 194 191 186 182 179 176 172 169 168 168 166 165 163 161 162 158 153 146 137 131 120 114 102 85 75
233 231 217 216 229 213 209 214 213 215 213 230 229 219 224 236 190 209 205 195 188 185 185 184 180 175 173 170 167 166 162 163 159 155 150 145 140 136 130 124 117 106 91 78
229 240 237 228 213 224 210 222 222 231 235 240 210 226 211 216 237 186 196 185 189 188 186 185 181 179 174 172 172 168 165 162 159 156 150 145 140 135 128 120 111 100 90 76
256 262 238 240 223 225 234 218 223 236 239 236 230 229 220 199 213 194 189 187 189 188 184 184 183 179 177 173 173 169 167 165 163 158 150 145 141 136 128 118 111 102 91 83
242 244 258 228 214 219 214 234 223 232 227 234 236 235 226 223 204 199 196 190 190 188 184 182 181 178 176 174 174 171 169 168 166 163 158 154 148 140 131 124 116 107 100 93
267 237 238 239 250 235 232 216 221 218 224 240 253 247 51 229 201 206 199 190 193 191 183 179 177 174 176 175 174 173 172 170 171 169 166 159 154 147 140 134 126 114 104 93
345 234 243 242 242 226 235 233 227 220 239 243 233 240 170 245 226 202 202 194 191 187 181 178 176 176 176 176 174 174 173 171 172 171 168 164 158 151 148 141 127 116 105 96
311 256 252 237 240 222 218 234 229 231 227 240 245 250 212 212 212 196 198 191 186 187 184 180 179 176 178 177 176 175 173 174 172 170 168 167 163 159 154 145 135 125 114 101
7 278 272 273 274 272 253 228 230 230 235 229 239 246 237 219 214 201 191 181 182 187 186 184 181 178 178 177 176 176 175 176 174 171 170 173 170 165 160 153 143 132 119 105
336 281 311 283 262 254 257 252 247 227 235 237 242 247 242 238 193 185 187 180 183 189 190 187 183 179 179 178 176 176 177 177 176 174 174 177 173 168 164 158 149 137 124 105
280 280 313 273 268 263 243 235 241 242 244 241 238 239 240 204 200 195 183 190 191 188 189 189 186 182 179 180 177 179 179 178 177 176 178 179 175 170 166 161 152 142 129 119
247 252 262 281 285 239 241 234 237 245 251 243 251 254 243 217 218 206 199 189 196 193 191 190 186 183 181 180 179 178 178 179 177 177 180 179 176 173 170 164 158 150 141 134
223 229 246 249 253 269 260 228 241 235 246 243 245 237 237 222 229 214 214 209 201 194 193 189 187 180 176 178 178 178 176 177 179 179 181 181 180 176 172 166 164 160 150 141
221 216 218 222 234 242 250 247 249 268 254 246 234 221 228 232 223 225 218 213 207 196 189 185 184 181 179 180 178 177 178 181 181 182 183 183 181 177 173 172 170 165 157 144
196 199 220 221 237 258 258 295 250 207 266 256 228 224 227 229 225 239 224 219 212 199 188 184 182 181 184 180 184 181 183 185 183 183 183 182 180 177 178 175 172 166 157 150
276 245 208 231 226 237 223 251 246 5 352 13 7 322 234 232 249 250 239 218 200 191 184 183 181 180 184 193 190 182 185 182 182 184 183 181 180 179 179 177 173 166 160 148
252 249 315 298 222 236 70 20 46 18 5 358 357 347 334 282 259 242 233 210 201 193 186 180 184 181 183 191 191 190 183 180 182 182 180 179 181 181 179 175 172 167 162 156
271 287 265 305 262 318 317 305 283 354 350 344 342 335 337 321 300 279 233 207 194 190 186 184 184 185 183 190 190 193 184 183 182 178 178 179 181 180 177 171 171 169 165 161
264 283 272 276 277 288 282 297 321 326 329 329 326 325 333 334 316 288 257 213 198 190 186 184 185 184 183 187 188 188 186 182 179 176 177 177 180 178 174 171 170 173 176 172
245 255 262 265 269 289 285 288 291 301 308 311 314 315 317 319 312 296 265 234 201 189 188 186 188 186 181 180 181 183 184 183 179 175 176 176 178 175 174 181 179 179 175 174
Height
1488 1485 1477 1472 1473 1468 1463 1465 1469 1469 1484 1488 1490 1502 1513 1519 1523 1527 1530 1531 1535 1537 1538 1538 1539 1540 1542 1542 1544 1545 1546 1547 1549 1551 1553 1555 1555 1556 1557 1557 1557 1557 1557 1557
1486 1479 1472 1473 1470 1476 1474 1468 1463 1477 1490 1488 1491 1501 1510 1517 1520 1524 1528 1530 1534 1536 1537 1538 1539 1540 1541 1542 1543 1545 1547 1548 1549 1551 1552 1553 1554 1555 1556 1556 1556 1556 1556 1556
1475 1470 1477 1477 1474 1476 1471 1468 1463 1475 1492 1488 1493 1506 1510 1515 1519 1523 1527 1529 1532 1534 1536 1538 1539 1540 1541 1542 1543 1545 1546 1548 1549 1551 1552 1553 1554 1556 1556 1556 1556 1555 1555 1555
1474 1470 1476 1475 1472 1469 1468 1464 1467 1463 1486 1485 1490 1495 1505 1508 1513 1517 1522 1526 1530 1533 1534 1536 1538 1539 1541 1541 1543 1544 1546 1547 1549 1551 1552 1553 1555 1555 1555 1555 1555 1555 1555 1555
1469 1473 1472 1470 1463 1468 1463 1460 1465 1465 1475 1478 1497 1507 1471 1493 1502 1503 1511 1519 1525 1530 1532 1533 1536 1538 1539 1541 1542 1544 1546 1547 1548 1549 1551 1552 1553 1554 1555 1555 1555 1555 1555 1554
1467 1469 1470 1463 1462 1467 1465 1464 1465 1466 1470 1478 1467 1479 1465 1471 1474 1491 1504 1510 1518 1523 1528 1532 1534 1536 1538 1539 1541 1544 1546 1547 1548 1550 1551 1552 1553 1554 1555 1556 1556 1556 1556 1555
1464 1463 1464 1467 1464 1463 1464 1462 1471 1476 1470 1459 1455 1465 1456 1443 1465 1475 1486 1496 1508 1516 1522 1526 1529 1533 1536 1537 1539 1542 1544 1546 1547 1550 1550 1552 1553 1554 1555 1556 1557 1557 1556 1556
1455 1458 1453 1455 1457 1452 1454 1451 1455 1469 1461 1448 1446 1456 1437 1450 1460 1469 1480 1493 1504 1509 1516 1521 1524 1528 1532 1535 1538 1540 1543 1544 1547 1549 1550 1551 1553 1554 1555 1556 1556 1556 1555 1556
1452 1452 1444 1447 1450 1451 1448 1449 1438 1443 1441 1445 1439 1444 1442 1449 1451 1461 1472 1485 1496 1504 1510 1517 1522 1526 1529 1533 1537 1539 1541 1543 1546 1548 1549 1551 1552 1554 1555 1555 1555 1555 1555 1555
1448 1453 1445 1443 1447 1443 1442 1437 1451 1444 1458 1451 1432 1426 1432 1441 1450 1454 1464 1472 1484 1495 1501 1510 1516 1521 1526 1530 1535 1537 1540 1542 1544 1546 1547 1550 1552 1553 1554 1554 1555 1555 1555 1556
1447 1449 1446 1443 1439 1435 1438 1441 1438 1437 1439 1440 1438 1418 1413 1422 1438 1448 1453 1464 1473 1481 1489 1499 1508 1516 1522 1527 1531 1534 1538 1540 1542 1545 1546 1549 1551 1553 1554 1554 1555 1555 1555 1556
1446 1442 1443 1435 1430 1427 1423 1428 1430 1437 1439 1428 1425 1415 1412 1413 1424 1436 1442 1453 1464 1475 1482 1492 1500 1509 1518 1523 1528 1531 1535 1538 1540 1543 1545 1547 1549 1552 1553 1554 1555 1554 1555 1554
1464 1443 1445 1437 1431 1428 1427 1422 1419 1424 1427 1426 1429 1412 1415 1423 1422 1430 1444 1453 1464 1475 1484 1489 1496 1502 1511 1518 1524 1528 1532 1535 1538 1541 1543 1546 1548 1550 1551 1553 1553 1554 1554 1554
1469 1448 1435 1430 1418 1418 1426 1422 1419 1420 1429 1422 1415 1414 1411 1421 1424 1430 1437 1445 1456 1468 1476 1482 1491 1496 1505 1512 1519 1524 1528 1532 1536 1539 1542 1543 1546 1548 1550 1551 1553 1553 1554 1553
1475 1455 1439 1430 1423 1416 1413 1416 1417 1418 1411 1419 1412 1410 1407 1411 1419 1424 1432 1441 1452 1462 1470 1475 1481 1488 1498 1506 1513 1520 1524 1529 1533 1536 1539 1541 1544 1546 1549 1551 1552 1552 1552 1552
1480 1464 1451 1440 1429 1422 1418 1411 1409 1406 1406 1407 1407 1408 1402 1409 1419 1426 1429 1434 1441 1451 1461 1469 1477 1484 1492 1499 1506 1514 1520 1525 1530 1532 1536 1538 1541 1544 1547 1549 1550 1550 1550 1550
1486 1468 1457 1437 1420 1416 1417 1404 1401 1401 1399 1398 1403 1400 1405 1411 1417 1420 1424 1432 1432 1437 1448 1459 1467 1475 1484 1494 1501 1508 1514 1520 1525 1529 1532 1535 1539 1541 1543 1546 1547 1548 1549 1549
1474 1470 1465 1449 1432 1427 1391 1395 1396 1397 1395 1395 1396 1399 1401 1405 1410 1414 1417 1417 1424 1434 1443 1454 1463 1472 1479 1488 1497 1504 1510 1515 1520 1525 1528 1532 1536 1538 1541 1543 1545 1546 1547 1548
1460 1464 1460 1452 1428 1407 1388 1385 1387 1388 1386 1391 1392 1396 1398 1399 1403 1408 1410 1412 1411 1419 1428 1437 1454 1464 1473 1482 1491 1498 1505 1511 1516 1519 1524 1528 1532 1535 1538 1540 1543 1545 1546 1546
1441 1450 1446 1438 1437 1416 1384 1388 1386 1388 1384 1382 1384 1389 1393 1395 1397 1396 1405 1410 1415 1422 1430 1436 1446 1456 1466 1475 1484 1492 1498 1504 1510 1514 1519 1523 1528 1532 1535 1537 1540 1543 1544 1544
1431 1438 1441 1424 1424 1398 1390 1388 1384 1391 1385 1372 1378 1382 1385 1386 1388 1395 1398 1401 1405 1410 1421 1432 1440 1445 1453 1464 1475 1483 1491 1498 1505 1511 1514 1519 1526 1529 1532 1535 1538 1540 1541 1542
1435 1429 1428 1424 1414 1407 1392 1393 1394 1404 1396 1397 1389 1386 1385 1388 1390 1392 1393 1395 1403 1407 1414 1423 1431 1439 1445 1457 1468 1477 1485 1494 1500 1506 1511 1516 1521 1526 1530 1533 1536 1537 1539 1540
1437 1439 1439 1437 1399 1390 1395 1406 1409 1409 1408 1403 1398 1398 1396 1394 1389 1389 1391 1393 1397 1403 1407 1413 1425 1436 1444 1451 1462 1471 1480 1487 1493 1500 1506 1513 1518 1523 1526 1530 1532 1535 1536 1537
1440 1437 1436 1434 1395 1403 1402 1407 1407 1408 1406 1406 1404 1401 1395 1391 1389 1388 1386 1387 1390 1398 1403 1411 1421 1429 1435 1444 1456 1466 1474 1481 1488 1494 1502 1508 1514 1519 1523 1526 1529 1531 1533 1534
1445 1441 1427 1417 1409 1408 1401 1398 1400 1406 1406 1404 1401 1399 1395 1391 1388 1386 1385 1383 1384 1389 1396 1403 1412 1419 1425 1436 1447 1458 1467 1475 1482 1490 1498 1503 1509 1515 1518 1522 1525 1527 1529 1531
1436 1425 1427 1398 1405 1409 1398 1398 1398 1400 1402 1401 1397 1392 1392 1393 1390 1386 1382 1383 1382 1383 1391 1399 1407 1415 1421 1430 1441 1450 1460 1469 1475 1484 1492 1498 1504 1509 1513 1517 1520 1523 1526 1528